Aérodrome :
LOGIN :

S'inscrire | Disclaimer

   EN    FR    IT 

 










Légende :    VFR   VFR Marginal   IFR   IFR Intensif   IFR Très Intensif
Visi : 
Plafond : 
>= 8 km
>= 3000ft
5 à 8 km
1000 à 3000 ft
1500m à 5 km
500 à 1000 ft
800 à 1500m
200 à 500 ft
< 800m
< 200 ft
Symboles :   Orages  Brouillard  Fortes neiges  Fortes précipitations  Vent > 20 kt
SIGMETs :   Divers  Orages  Givrage  Turbulence  Onde Orograph.  Cendres Volcan.






- Altitude de l'aérodrome : 120 ft
- Code IATA : MME


EGNV - Durham Tees valley

DERNIER METAR :
  • 151820Z 27010KT 240V300 9999 FEW021 BKN029 16/12 Q1013

METARs EXPIRÉS :
  • 151750Z 28012KT 9999 FEW024 SCT027 16/12 Q1013
  • 151720Z 27013KT 9999 FEW024 BKN032 16/12 Q1013
  • 151650Z 27012KT 9999 SCT023 BKN030 17/12 Q1013
  • 151620Z 26012KT 9999 SCT026 BKN035 17/12 Q1013
  • 151550Z 27012KT 9999 SCT025 17/12 Q1013

TAF TAF EGNV
Valide du 15 à 15h jusqu'au 15 à 21h UTC


151400Z 1515/1521 28009KT 9999 SCT020
TEMPO 1515/1518 6000 RA BKN012
ATIS : +44 9012 018 111



MET'MAP, la Météo Aéronautique d'un coup d'oeil ! - Copyright ORBIFLY Décembre 2007 - Disclaimer

ORBIFLY MET'MAP TEAM :

Programmation & Développement : Alexandra Zaïnal
Sur une idée originale de : Baudouin d'Aumeries
Assistance à la programmation : Marc-Olivier Méhu
Soutien technique & logistique : Manuel Goepfert

Contact : metmap@orbifly.com




SOURCES & CREDITS :

   NOAA